sat.trackr.live / text

‹ back to catalog

TECMS

NORAD 53346 · 2022-090A

PAYLOAD ACTIVE UNKNOWN

§ Identity

Operator
Country
PRC
Launch date
2022-08-04
Launch site
TAISC
Launch vehicle
Mass (kg)
RCS (m²)

External: N2YO · Heavens-Above · Gunter

§ Orbital elements

Epoch: 2026-05-25T04:53:32.326368Z

Period
94.64 min
Inclination
97.3145°
Eccentricity
0.0001130
Mean motion
15.21499741 rev/d
Perigee alt
500.5 km
Apogee alt
502.1 km
Semi-major
6,879.5 km
B*
1.5352e-4
RAAN
213.9634°
Arg perigee
252.6621°
Mean anomaly
107.4492°
Rev number
21,131

§ Raw data

TECMS1 53346U 22090A   26145.20384637  .00003386  00000+0  15352-3 0  99932 53346  97.3145 213.9634 0001130 252.6621 107.4492 15.21499741211317

JSON: /api/v1/satellites/53346 · /tle

For live sub-satellite position, see the globe view (requires WebGL).

§ Visibility from observer

Set your observer location to see the next 7 days of passes ≥ 10°. The values pass through the URL so the page stays shareable.

No JS? Fill the form by hand. The geolocation button needs JavaScript.

§ Radio — SatNOGS DB

ModeDescriptionDownlinkUplink
LoRa LoRa 62,5 kHz SF12 CR4/5 sync 0x12 400.130 MHz
FM S-band telemetry 2.210 GHz
FM S-band telemetry 2.224 GHz

3 transmitters · refreshed weekly from db.satnogs.org